Flag for U.S.A. Weather past 2 weeks in Bellingham, Washington, U.S.A.

Now
46 °F

Fog.


Feels Like: 46 °F
Forecast: 42 / 55 °F
Wind: No wind

Location: Bellingham International Airport

Current Time: Jan 25, 2015 at 9:08:11 PM

Latest Report: Jan 25, 2015 at 7:53 PM


Visibility: 10 mi

Pressure: 30.06 "Hg

Humidity: 93%

Dew point: 44 °F

Location of BellinghamLocation

Historic Weather in Bellingham — Graph

°F

Bellingham temperature yesterday

Maximum temperature yesterday: 55 °F (at 8:00 AM)
Minimum temperature yesterday: 52 °F (at 10:53 PM)
Average temperature yesterday: 54 °F

Past Weeks' High & Low Weather Summary

 TemperatureHumidityPressure
High58 °F (Jan 25, 1:53 PM)97% (Jan 12, 8:53 PM)30.52 "Hg (Jan 12, 8:53 PM)
Low29 °F (Jan 14, 7:53 AM)57% (Jan 15, 2:53 PM)29.48 "Hg (Jan 18, 1:53 AM)
Average44 °F84%30.22 "Hg
* Reported Jan 10 7:53 PM — Jan 25 7:53 PM, Bellingham, Weather by CustomWeather, © 2014

Note: Actual official high and low records may vary slightly from our data, if they occured in-between our weather recording intervals... More about our weather records

Advertising

Bellingham weather history for previous 24 hours

 ConditionsComfort  
Time TempWeatherWind HumidityBarometerVisibility
7:53 PM
Jan 25
46 °FFog.No wind93%30.06 "Hg10 mi
6:53 PM47 °FPassing clouds.3 mph93%30.08 "Hg10 mi
6:01 PM48 °FFog.No wind94%30.06 "Hg2 mi
4:53 PM54 °FSunny.3 mph83%30.09 "Hg10 mi
3:53 PM57 °FSunny.5 mph81%30.10 "Hg10 mi
2:53 PM58 °FPassing clouds.7 mph81%30.12 "Hg10 mi
1:53 PM58 °FPassing clouds.3 mph81%30.13 "Hg10 mi
1:03 PM55 °FPassing clouds.8 mph88%30.13 "Hg10 mi
12:53 PM56 °FPartly sunny.8 mph90%30.15 "Hg10 mi
11:53 AM55 °FFog.6 mph90%30.17 "Hg4 mi
10:53 AM54 °FFog.8 mph93%30.19 "Hg1 mi
9:53 AM53 °FFog.5 mph93%30.19 "Hg1 mi
8:53 AM51 °FFog.3 mph96%30.18 "Hg0 mi
7:53 AM52 °FFog.No wind93%30.19 "Hg1 mi
6:53 AM52 °FFog.7 mph97%30.19 "Hg1 mi
5:53 AM53 °FFog.6 mph93%30.20 "Hg2 mi
4:53 AM53 °FMostly cloudy.6 mph93%30.21 "Hg7 mi
3:53 AM52 °FFog.6 mph93%30.21 "Hg1 mi
2:53 AM53 °FOvercast.3 mph93%30.21 "Hg10 mi
1:53 AM53 °FOvercast.3 mph93%30.21 "Hg10 mi
12:53 AM53 °FLow clouds.6 mph93%30.20 "Hg10 mi
11:53 PM
Jan 24
53 °FMostly cloudy.6 mph93%30.22 "Hg10 mi
10:53 PM52 °FFog.6 mph97%30.22 "Hg2 mi
9:53 PM54 °FOvercast.7 mph93%30.18 "Hg10 mi
Weather by CustomWeather, © 2014

See weather overviewHow to use our weather pages